Wind_Speed
12 13 18 22 20 20 19 19 16 15 16 16 17 18 19 21 21 21 20 18 14 13 10 9 8 8 10 11 9 7 8 7 4 3 4 2 1 3 7 10 12 13 14
14 17 17 17 17 19 20 20 18 17 16 17 18 15 13 12 12 13 12 11 10 10 10 10 10 10 10 10 10 10 5 4 4 4 2 0 3 6 10 12 13 12 12
17 20 19 20 20 19 21 24 22 22 19 18 18 15 14 12 10 10 10 9 8 8 9 9 10 11 12 10 9 8 6 6 4 2 1 3 4 6 10 11 12 13 13
18 21 21 22 21 21 22 22 22 20 19 19 17 15 12 13 11 10 11 11 11 10 10 10 10 9 9 10 8 7 4 3 2 2 1 2 5 8 11 9 11 11 13
18 18 19 21 21 21 23 23 23 22 20 20 21 19 17 14 12 10 11 12 12 12 11 11 10 8 7 5 4 4 3 3 2 2 1 2 5 7 8 8 10 13 12
23 23 22 22 21 22 23 22 22 23 23 22 22 20 19 17 14 12 12 13 13 13 13 12 12 12 10 7 4 3 2 1 1 0 1 3 5 6 6 8 10 11 11
23 23 23 23 23 23 24 25 24 24 23 21 19 17 16 14 11 7 6 7 8 9 9 9 8 7 6 7 7 5 2 1 1 0 2 3 6 6 6 9 11 14 17
23 23 24 25 25 25 24 23 22 20 18 16 15 13 13 14 11 7 6 7 7 7 6 5 4 3 3 1 2 3 3 1 2 3 2 4 6 6 8 9 11 13 14
23 23 23 23 24 23 21 20 19 18 17 16 14 13 13 12 10 8 7 8 8 7 5 3 1 0 1 1 3 4 3 2 2 1 0 4 7 8 6 8 7 11 12
23 23 22 21 22 21 20 20 18 16 17 16 15 14 12 12 10 9 8 9 8 6 3 2 1 3 3 2 6 6 5 2 2 5 9 8 6 6 7 7 6 7 9
24 23 21 19 19 19 19 17 17 16 16 15 13 12 10 9 8 7 7 7 6 6 5 4 2 3 5 3 1 1 3 5 5 8 4 5 7 8 9 9 8 7 7
26 25 23 22 21 20 17 17 15 15 15 14 13 11 9 8 7 5 4 4 2 2 1 3 3 3 1 2 2 1 5 3 3 2 4 5 6 7 8 7 8 8 9
28 27 25 23 21 19 19 18 16 14 14 13 12 11 10 8 7 6 5 1 1 1 1 1 2 4 6 7 4 3 1 1 1 1 2 4 6 8 9 10 12 10 12
29 27 26 24 22 20 17 15 15 16 14 13 12 11 11 9 9 9 5 3 3 3 2 4 3 5 6 4 2 2 2 4 5 4 5 7 8 9 10 9 11 11 13
29 28 27 26 25 23 20 19 17 14 14 14 13 12 12 11 10 8 6 4 5 3 4 3 2 4 2 2 3 4 5 5 5 6 7 7 8 9 9 11 11 13 13
30 29 29 27 25 24 22 18 16 12 13 12 11 11 12 9 8 9 6 6 5 4 4 3 2 2 4 5 6 6 7 6 6 5 7 8 8 10 12 12 12 12 14
33 32 32 32 29 28 24 21 18 13 12 12 11 11 10 9 11 8 7 6 5 5 4 4 4 4 5 6 7 8 8 7 7 8 10 10 10 11 12 13 15 16 15
35 36 36 35 33 31 29 25 22 21 18 13 11 11 10 10 10 7 5 6 6 4 4 5 5 6 7 7 8 9 9 8 8 10 11 13 11 13 12 16 14 16 19
37 34 36 36 35 33 29 25 23 20 16 15 16 12 12 10 9 6 5 8 6 5 5 6 6 6 6 7 7 8 9 8 9 11 11 9 12 12 15 15 15 16 16
35 36 38 36 33 32 30 28 23 21 19 18 17 16 17 15 12 11 10 9 7 6 6 7 6 6 7 8 8 8 9 10 11 12 12 13 14 14 14 15 18 19 17
36 33 36 34 34 34 33 31 28 26 23 20 19 19 18 16 13 12 11 10 9 7 7 8 7 8 9 8 7 8 9 10 10 12 12 13 13 14 15 17 20 18 21
33 31 33 36 34 33 32 31 29 26 24 20 18 17 16 15 15 13 11 9 9 8 7 7 7 8 9 8 8 10 11 11 11 12 13 13 14 17 15 18 19 19 19
33 33 31 29 30 27 25 28 27 25 22 19 17 17 18 18 16 13 11 10 9 8 7 7 7 8 10 12 11 9 10 12 13 14 15 16 15 16 16 17 20 21 20
31 30 29 27 28 27 27 27 25 22 20 18 18 19 19 19 17 15 11 10 8 6 6 6 7 8 8 6 7 8 10 12 14 14 15 16 17 17 18 20 22 22 23
31 29 27 27 27 27 27 26 23 20 19 19 19 18 17 17 17 16 13 11 8 5 6 6 6 6 7 8 8 10 12 12 12 14 13 15 19 20 21 21 22 23 23
28 27 27 27 29 29 29 27 21 20 21 20 17 17 15 15 16 15 13 12 10 7 7 7 6 7 9 10 11 13 11 11 12 13 14 17 19 18 17 20 21 21 21
Wind_Direction
112 116 124 131 132 132 138 144 141 143 139 140 136 136 140 142 147 151 155 164 170 173 183 204 231 244 241 229 215 184 183 174 114 114 154 183 280 342 322 318 318 314 306
117 113 110 117 132 142 137 132 138 144 148 153 151 149 145 146 149 161 165 176 190 200 206 207 206 185 169 156 146 141 144 124 127 129 134 272 292 319 323 323 321 314 312
118 118 120 121 124 119 121 128 133 136 140 141 140 145 156 168 185 190 193 190 185 176 166 159 158 163 156 148 142 131 123 106 73 93 63 326 316 322 318 315 312 312 313
118 118 123 120 123 126 124 122 125 130 134 135 137 137 139 138 140 143 146 145 143 142 145 147 150 159 154 149 139 131 136 129 104 88 60 336 319 317 319 315 319 319 316
132 129 121 121 122 122 116 116 116 117 121 123 125 124 124 122 118 131 131 129 131 132 133 133 129 133 129 126 133 141 154 130 109 61 359 325 310 319 323 320 312 317 324
132 130 128 128 129 123 117 115 119 126 123 120 116 115 110 102 107 110 119 126 125 125 126 122 125 126 116 103 112 123 113 85 97 141 299 294 310 309 318 322 320 332 333
131 131 135 135 128 123 124 127 129 125 123 117 112 109 104 98 103 115 128 126 126 128 130 131 137 137 135 132 122 132 123 102 40 326 318 315 306 315 321 323 324 317 315
141 140 139 135 130 131 133 133 130 127 122 119 114 108 99 85 92 108 118 118 118 124 130 134 141 134 154 171 215 231 230 243 48 26 331 318 314 325 319 313 314 312 312
152 149 147 144 142 143 142 140 138 135 132 130 123 109 98 94 96 103 113 113 105 102 107 103 79 221 198 327 214 221 227 213 140 119 246 325 311 313 327 322 331 336 327
163 159 157 155 154 155 152 149 146 144 139 134 128 121 117 110 105 101 103 101 99 87 68 59 61 23 357 282 238 236 204 217 282 297 312 318 330 330 321 335 334 317 318
170 167 166 166 164 161 156 154 150 148 144 142 141 138 135 124 120 112 79 74 85 78 70 50 52 12 356 122 198 176 238 273 289 316 9 18 28 30 28 16 345 305 282
176 175 174 172 170 167 164 160 159 156 154 154 155 156 159 157 152 141 122 58 54 19 61 22 345 337 57 24 297 47 132 285 323 35 21 15 10 4 358 346 347 350 335
180 180 178 176 175 174 171 167 166 169 169 169 172 172 175 177 169 161 159 125 147 222 289 276 294 325 288 280 274 252 144 344 318 308 332 336 335 336 332 331 331 317 317
184 184 183 182 180 181 182 185 184 181 181 181 182 185 186 190 195 205 218 213 187 244 269 297 242 313 288 297 232 185 276 274 280 285 297 311 312 318 317 316 318 322 320
192 191 190 188 187 184 190 192 194 200 203 198 201 199 195 204 211 211 209 210 247 242 266 250 225 350 305 263 243 260 277 282 291 298 303 300 304 309 311 313 317 319 305
192 192 194 192 193 192 189 187 195 201 201 203 206 210 208 208 198 186 197 215 197 261 256 204 232 285 249 249 250 266 282 280 285 292 298 299 304 312 313 310 314 311 311
192 194 196 196 195 194 192 187 173 183 192 199 202 201 203 197 176 183 190 207 223 191 211 232 247 269 261 255 259 267 271 274 284 300 307 299 300 299 308 312 310 307 301
199 204 200 202 201 199 199 195 191 177 173 177 182 183 186 178 176 181 195 194 185 199 234 270 266 270 269 268 265 270 270 273 282 289 288 295 291 304 303 310 308 306 301
199 198 203 207 206 205 202 198 196 192 186 180 176 178 178 178 178 188 198 202 212 225 244 259 267 267 272 284 272 294 271 283 291 291 297 302 305 302 299 300 301 304 305
202 205 208 204 202 202 201 199 193 194 193 190 191 189 187 190 195 202 206 216 228 243 249 266 270 254 283 289 290 293 292 292 298 301 301 299 299 296 294 296 301 301 307
199 198 204 202 201 203 202 199 199 199 199 198 204 205 208 209 209 217 224 231 234 244 258 265 267 272 279 273 285 297 298 296 297 294 294 293 294 291 294 294 304 306 302
195 190 193 201 200 200 200 200 201 202 205 204 210 212 211 216 221 223 226 231 234 244 254 267 269 277 277 268 280 285 290 288 290 291 295 297 294 298 303 304 301 301 301
195 193 192 192 194 189 184 197 198 202 207 209 213 212 203 210 218 219 222 227 233 243 253 258 275 278 283 291 290 279 280 286 290 293 296 297 300 298 298 298 300 300 299
192 188 185 183 182 179 185 187 194 199 206 208 211 210 210 213 216 218 221 224 228 242 254 264 275 291 311 301 290 289 286 290 291 291 290 292 295 297 298 298 298 297 296
188 183 178 172 167 175 178 184 184 194 201 210 209 209 211 213 212 211 217 217 218 239 255 272 280 292 299 298 297 297 299 302 299 299 294 297 303 305 307 305 307 311 305
180 175 172 172 175 176 176 173 178 193 206 211 209 211 211 212 209 211 214 213 218 236 251 271 274 296 301 297 297 303 301 304 308 309 303 301 302 300 301 306 306 304 305
Height
800 801 800 800 803 806 810 814 814 819 824 828 833 835 839 842 845 847 850 854 857 860 862 864 866 867 870 873 872 871 874 876 880 883 884 885 887 886 887 887 882 882 883
803 802 805 805 807 809 811 811 817 822 825 830 833 839 843 847 849 852 854 857 859 860 861 862 864 863 868 870 870 870 876 875 874 882 884 884 884 882 884 884 883 882 877
806 806 811 813 814 816 814 815 820 823 828 833 834 838 843 846 850 852 853 854 856 858 859 860 864 866 866 868 870 870 874 874 878 881 883 884 884 881 880 878 880 878 877
809 810 815 815 819 822 821 823 824 829 832 832 836 840 846 846 849 852 853 853 854 857 859 860 864 868 868 868 869 870 872 872 876 878 878 881 883 883 883 879 876 875 874
811 814 817 820 824 825 824 826 829 833 838 841 842 843 846 848 849 853 854 854 857 858 860 862 863 867 870 870 872 871 875 874 873 875 878 880 882 882 882 879 875 874 871
816 819 822 824 827 827 825 828 833 840 841 844 846 847 849 849 853 857 857 857 859 860 863 864 865 866 870 870 872 874 876 875 873 874 876 878 879 879 878 876 876 873 871
819 822 825 827 827 828 830 835 840 841 843 846 848 849 852 853 850 858 861 859 859 861 863 864 866 867 869 871 871 874 878 876 873 873 874 876 878 877 875 875 874 874 870
822 824 826 827 828 831 835 839 842 844 845 848 850 852 851 850 854 858 861 861 861 863 864 864 866 865 869 871 871 873 877 874 872 871 874 875 875 874 873 873 872 870 868
822 824 826 828 830 834 838 840 843 845 849 852 853 852 852 856 859 860 862 864 863 863 864 865 866 867 868 869 871 874 875 873 872 872 872 872 871 871 870 870 869 868 867
821 824 827 831 834 837 840 842 845 847 849 850 851 853 856 860 862 862 863 863 863 864 864 865 865 867 868 869 871 872 871 871 870 871 871 869 869 868 867 866 867 869 868
820 824 828 831 834 837 840 843 844 846 848 850 853 855 858 860 863 864 863 863 862 862 864 865 867 868 869 869 869 869 869 869 869 869 869 869 868 867 867 866 866 866 866
818 822 826 829 832 836 839 842 844 846 848 851 853 856 858 860 861 863 863 863 864 865 866 867 868 869 869 869 869 869 867 868 869 869 869 869 869 868 868 867 865 864 863
813 818 822 826 829 833 835 838 842 845 848 851 853 855 857 858 860 862 863 863 864 866 867 867 868 868 868 867 866 867 866 868 868 868 869 869 868 868 867 865 864 862 859
810 815 819 822 826 829 833 836 839 842 846 849 851 853 854 856 858 859 861 863 864 865 866 865 866 866 866 866 865 865 866 867 867 867 867 867 866 865 865 863 861 859 856
806 811 815 818 821 825 829 832 836 839 842 845 847 850 852 854 856 858 860 861 861 862 862 863 864 864 864 865 865 865 865 866 866 865 865 865 864 863 862 860 857 855 853
802 807 812 817 821 825 827 830 834 838 840 843 845 848 849 851 853 855 857 859 859 860 861 861 862 862 863 863 863 863 863 863 863 863 863 862 861 860 858 856 854 851 849
793 800 805 810 814 819 824 827 830 835 838 840 843 845 847 849 851 854 855 857 857 859 859 859 860 860 861 861 861 861 861 861 861 860 860 858 857 856 855 852 850 848 845
788 792 797 803 807 812 817 822 826 829 833 838 841 842 844 846 848 851 852 854 856 856 856 857 857 857 857 857 857 857 857 857 857 857 856 854 853 852 850 849 846 844 841
779 786 791 796 801 806 811 817 821 826 830 833 837 840 842 845 846 848 850 851 852 853 853 854 854 854 854 854 854 855 854 854 854 853 851 851 850 849 847 845 842 840 837
775 779 783 789 796 801 806 811 816 821 825 829 833 836 839 843 844 845 847 848 849 850 851 851 851 852 852 852 852 852 851 851 850 850 849 848 847 845 843 840 838 835 834
765 771 777 784 788 794 799 805 811 816 821 825 829 833 837 839 841 843 845 846 846 847 848 848 848 849 849 849 849 849 848 848 847 847 846 845 843 841 839 836 834 832 829
759 765 769 775 781 787 793 800 806 811 817 821 826 830 834 837 839 840 842 843 844 844 845 845 846 846 846 846 846 846 845 845 844 844 842 841 840 837 835 833 830 827 824
753 757 763 770 776 783 790 797 802 808 813 818 822 826 829 831 834 837 839 841 842 842 842 843 843 843 843 842 842 842 842 842 841 840 839 837 836 834 831 829 826 823 820
748 755 760 766 772 780 787 794 800 806 811 815 819 821 824 827 830 834 836 838 839 839 840 840 840 840 840 839 839 839 839 838 837 836 835 833 831 829 827 824 821 817 814
743 751 757 764 771 777 784 791 797 804 809 813 815 818 821 824 827 831 833 835 836 837 838 838 838 838 838 837 837 836 835 834 833 832 831 829 827 824 821 818 815 812 808
743 749 756 763 769 775 780 787 794 802 807 808 812 815 818 821 824 827 830 832 834 835 836 836 836 836 835 834 833 833 832 831 830 828 827 824 822 819 817 814 811 808 804